This is the latest recevied weather packets stored in our database for station/object W1LBM. If no packets are shown the sender has not sent any weather packets the latest 10 day(s).
| Time | Temp. | Humidity | Pressure | Rain* | Wind** | Luminosity | Snow |
|---|---|---|---|---|---|---|---|
| 1777139182 | 11.67° C | 46% | 1020.4 hPa | 0 mm | - | 330 W/m² | - |
| 1777138880 | 11.67° C | 49% | 1020.3 hPa | 0 mm | - | 383 W/m² | - |
| 1777138575 | 11.67° C | 49% | 1020.3 hPa | 0 mm | - | 298 W/m² | - |
| 1777138271 | 11.67° C | 47% | 1020.2 hPa | 0 mm | - | 375 W/m² | - |
| 1777137968 | 11.11° C | 46% | 1020.2 hPa | 0 mm | - | 579 W/m² | - |
| 1777137663 | 11.67° C | 45% | 1020.2 hPa | 0 mm | - | 407 W/m² | - |
| 1777137361 | 11.67° C | 47% | 1020.3 hPa | 0 mm | - | 418 W/m² | - |
| 1777137057 | 11.11° C | 45% | 1020.4 hPa | 0 mm | - | 356 W/m² | - |
| 1777136754 | 11.67° C | 48% | 1020.3 hPa | 0 mm | - | 313 W/m² | - |
| 1777136451 | 11.11° C | 46% | 1020.5 hPa | 0 mm | - | 342 W/m² | - |
| 1777136149 | 11.11° C | 48% | 1020.6 hPa | 0 mm | - | 377 W/m² | - |
| 1777135845 | 11.11° C | 46% | 1020.6 hPa | 0 mm | - | 441 W/m² | - |
| 1777135541 | 11.11° C | 47% | 1020.7 hPa | 0 mm | - | 340 W/m² | - |
| 1777135237 | 11.11° C | 47% | 1020.7 hPa | 0 mm | - | 358 W/m² | - |
| 1777134935 | 11.67° C | 46% | 1020.8 hPa | 0 mm | - | 474 W/m² | - |
| 1777134632 | 11.11° C | 48% | 1021.1 hPa | 0 mm | - | 452 W/m² | - |
| 1777134327 | 10.56° C | 48% | 1021 hPa | 0 mm | - | 423 W/m² | - |
| 1777134024 | 10.56° C | 49% | 1020.8 hPa | 0 mm | - | 433 W/m² | - |
| 1777133721 | 10.56° C | 48% | 1021 hPa | 0 mm | - | 375 W/m² | - |
| 1777133420 | 10° C | 49% | 1021.1 hPa | 0 mm | - | 431 W/m² | - |
| 1777133115 | 10.56° C | 51% | 1021.1 hPa | 0 mm | - | 348 W/m² | - |
| 1777132811 | 10.56° C | 49% | 1021.1 hPa | 0 mm | - | 318 W/m² | - |
| 1777132508 | 10.56° C | 49% | 1021.1 hPa | 0 mm | - | 463 W/m² | - |
| 1777132205 | 10.56° C | 48% | 1021.2 hPa | 0 mm | - | 567 W/m² | - |
| 1777131901 | 10.56° C | 49% | 1021.4 hPa | 0 mm | - | 480 W/m² | - |
* Rain latest hour (hover to see other rain measurements)
** Current wind speed in m/s (hover to see current wind gust speed)